Location: Cambridge (historical)
(38.6883°N, 119.0140°W)
Time: 17:25:52
(UTC+00:00)

Cosmos 1703 - Pass Details

Date: 29 October 2020
Orbit: 525 x 539 km, 82.5° (Epoch: 23 November)

Event Time Altitude Azimuth Distance (km) Brightness Sun altitude
Rises 13:46:34 0° 188° (S) 2,642 6.9 -7.2°
Reaches altitude 10° 13:48:42 10° 190° (S) 1,759 5.9 -6.8°
Maximum altitude 13:52:33 80° 276° (W) 539 3.2 -6.1°
Drops below altitude 10° 13:56:28 10° 5° (N) 1,778 5.8 -5.3°
Sets 13:58:37 0° 7° (N) 2,674 6.8 -4.9°
